Flag for Singapore Weather past 2 weeks in Singapore, Singapore

Now
82 °F

Partly sunny.


Feels Like: 91 °F
Forecast: 78 / 86 °F
Wind: 1 mph from West

Location: Singapore / Paya Lebar

Current Time: Aug 23, 2014 at 8:39:19 AM

Latest Report: Aug 23, 2014 at 8:00 AM


Visibility: N/A

Pressure: 29.83 "Hg

Humidity: 84%

Dew point: 77 °F

Location of SingaporeLocation

Historic Weather in Singapore — Graph

°F

Singapore temperature yesterday

Maximum temperature yesterday: 90 °F (at 1:00 PM)
Minimum temperature yesterday: 81 °F (at 5:00 AM)
Average temperature yesterday: 85 °F

Past Weeks' High & Low Weather Summary

 TemperatureHumidityPressure
High90 °F (Aug 9, 1:00 PM)100% (Aug 14, 2:00 PM)29.92 "Hg (Aug 14, 2:00 PM)
Low75 °F (Aug 15, 12:00 PM)59% (Aug 9, 3:00 PM)29.74 "Hg (Aug 11, 6:00 PM)
Average83 °F77%29.84 "Hg
* Reported Aug 8 7:00 AM — Aug 23 7:00 AM, Singapore, Weather by CustomWeather, © 2014

Note: Actual official high and low records may vary slightly from our data, if they occured in-between our weather recording intervals... More about our weather records

Advertising

Singapore weather history for previous 24 hours

 ConditionsComfort  
Time TempWeatherWind HumidityBarometerVisibility
7:00 AM
Aug 23
81 °FPassing clouds.3 mph89%29.80 "HgN/A
6:00 AM81 °FPassing clouds.2 mph89%29.80 "HgN/A
5:00 AM81 °FPassing clouds.5 mph89%29.80 "HgN/A
11:00 PM
Aug 22
84 °FPassing clouds.3 mph74%29.83 "HgN/A
10:00 PM84 °FPassing clouds.3 mph74%29.83 "HgN/A
9:00 PM84 °FPassing clouds.6 mph70%29.80 "HgN/A
8:00 PM86 °FPassing clouds.3 mph66%29.77 "HgN/A
7:00 PM86 °FScattered clouds.7 mph66%29.77 "HgN/A
6:00 PM86 °FScattered clouds.7 mph70%29.74 "HgN/A
5:00 PM84 °FScattered clouds.7 mph70%29.74 "HgN/A
4:00 PM88 °FBroken clouds.8 mph70%29.74 "HgN/A
3:00 PM90 °FPartly sunny.9 mph67%29.77 "HgN/A
2:00 PM90 °FPartly sunny.8 mph63%29.77 "HgN/A
1:00 PM90 °FPartly sunny.9 mph59%29.83 "HgN/A
12:00 PM88 °FPartly sunny.9 mph66%29.83 "HgN/A
11:00 AM86 °FPartly sunny.9 mph70%29.83 "HgN/A
10:00 AM84 °FPartly sunny.7 mph79%29.86 "HgN/A
9:00 AM84 °FPartly sunny.6 mph79%29.83 "HgN/A
8:00 AM82 °FPartly sunny.2 mph84%29.80 "HgN/A
Weather by CustomWeather, © 2014

See weather overviewHow to use our weather pages